Regional Weather Roundup
Issued by NWS

Home | Current Version | Previous Version | Text Only | Print | Product List | Glossary Off
Versions: 1 2 3 4 5 6 7 8 9 10 11 12 13 14 15 16 17 18 19 20 21 22 23 24 25 26 27 28 29 30 31 32 33 34 35 36 37 38 39 40 41 42 43 44 45 46 47 48 49 50

000
ASUS43 KOAX 201302
RWRNE

WEATHER ROUNDUP FOR NEBRASKA
NATIONAL WEATHER SERVICE OMAHA NE
800 AM CDT SAT SEP 20 2014

NOTES: SATELLITE DATA IS BEING USED TO AUGMENT CLOUD COVER ABOVE
       12000 FEET.
       "FAIR" INDICATES FEW OR NO CLOUDS BELOW 12,000 FEET WITH NO
       SIGNIFICANT WEATHER AND/OR OBSTRUCTIONS TO VISIBILITY.

  * THESE STATIONS DO NOT REPORT WEATHER SUCH AS RAIN...SNOW OR FOG.

NEZ001>004-019>022-054>056-201400-
NEBRASKA PANHANDLE

CITY           SKY/WX    TMP DP  RH WIND       PRES   REMARKS
SCOTTSBLUFF    CLEAR     52  48  86 NW9       30.15R
ALLIANCE       CLEAR     48  45  89 W7        30.12R
CHADRON        CLEAR     49  46  90 SW5       30.11R
KIMBALL        CLEAR     48  46  91 W6        30.16R
SIDNEY         CLEAR     54  49  83 NW9       30.14R
$$

NEZ057>060-069>072-079>082-201400-
SOUTHWEST NEBRASKA

CITY           SKY/WX    TMP DP  RH WIND       PRES   REMARKS
NORTH PLATTE   CLEAR     58  53  84 N6        30.02R
IMPERIAL       CLEAR     61  53  75 N8        30.05R
LEXINGTON      CLEAR     61  58  90 N5        29.98R
MCCOOK         CLEAR     64  60  87 N16       29.97R
OGALLALA       CLEAR     63  52  67 N10       30.05R
$$

NEZ005>010-023>029-035>040-094-201400-
NORTH CENTRAL NEBRASKA

CITY           SKY/WX    TMP DP  RH WIND       PRES   REMARKS
VALENTINE      PTCLDY    53  51  93 W8        30.02R
AINSWORTH      PTCLDY    56  51  82 W3        30.01R
BROKEN BOW     CLEAR     60  53  77 N9        29.99R
O`NEILL        CLOUDY    61  58  89 W5        29.97R
ORD            CLEAR     62  54  74 N7        29.95R
THEDFORD       CLEAR     57  52  82 CALM      30.04R
$$

NEZ041-046>049-061>064-073>077-083>087-201400-
SOUTH CENTRAL NEBRASKA

CITY           SKY/WX    TMP DP  RH WIND       PRES   REMARKS
GRAND ISLAND   CLEAR     64  60  87 N6        29.94R
AURORA         CLEAR     64  61  91 CALM      29.92R
HASTINGS       CLEAR     65  58  78 CALM      29.93R
HEBRON         PTCLDY    65  61  87 CALM      29.94R
HOLDREGE       CLEAR     62  60  91 CALM      29.96R
KEARNEY *      CLEAR     63  57  82 NW8       29.96R
YORK           PTCLDY    66  63  88 S5        29.92R
$$

NEZ011>018-030>034-042>045-201400-
NORTHEAST NEBRASKA

CITY           SKY/WX    TMP DP  RH WIND       PRES   REMARKS
NORFOLK        PTCLDY    65  58  78 N5        29.92R
ALBION         PTCLDY    62  57  82 N7        29.94R
BLAIR          CLOUDY    68  65  90 S7        29.91R
COLUMBUS *     MOCLDY    66  61  82 N3        29.93R
FREMONT        MOCLDY    68  64  87 SW6       29.91R
TEKAMAH        MOCLDY    67  65  93 SW5       29.89R
WAYNE          MOCLDY    60  58  92 CALM      29.91R
$$

NEZ050>053-065>068-078-088>093-201400-
SOUTHEAST NEBRASKA

CITY           SKY/WX    TMP DP  RH WIND       PRES   REMARKS
LINCOLN        CLOUDY    70  65  84 S8        29.91R
OMAHA EPPLEY   CLOUDY    70  64  81 S13       29.91R
BEATRICE       CLOUDY    69  64  84 CALM      29.95S
FALLS CITY     CLOUDY    71  67  87 S8        29.93F
NEBRASKA CITY    N/A     69  67  95 NE6       29.95R
PLATTSMOUTH    TSTM      65  63  91 S9G23     29.94R
$$

NEZ044-045-051>053-067-201400-
OMAHA AREA

CITY           SKY/WX    TMP DP  RH WIND       PRES   REMARKS
OMAHA EPPLEY   CLOUDY    70  64  81 S13       29.91R
BLAIR          CLOUDY    68  65  90 S7        29.91R
FREMONT        MOCLDY    68  64  87 SW6       29.91R
MILLARD        CLOUDY    69  65  87 S3        29.92R
OFFUTT AFB     CLOUDY    69  68  99 S8        29.93R
PLATTSMOUTH    TSTM      65  63  91 S9G23     29.94R
WAHOO          PTSUNNY   68  64  85 SW6       29.92R
$$



USA.gov is the U.S. government's official web portal to all federal, state and local government web resources and services.